GFSMA_prec_precacc24_159.txt.gz
Total_Precipitation_Accumulation
0.10 0.11 0.06 0.07 0.05 0.09 0.12 0.15 0.15 0.20 0.26 0.32 0.24 0.20 0.14 0.12 0.09 0.11 0.07 0.01 0.03 0.11 0.23 0.11 0.06 0.01 0.00 0.01 0.05 0.09 0.12 0.16 0.24 0.28 0.25 0.17 0.12 0.12 0.07 0.10 0.06 0.07 0.10
0.15 0.18 0.13 0.11 0.08 0.09 0.13 0.14 0.11 0.11 0.13 0.21 0.23 0.23 0.16 0.14 0.10 0.08 0.09 0.02 0.01 0.01 0.16 0.29 0.23 0.11 0.03 0.01 0.02 0.04 0.07 0.07 0.09 0.16 0.16 0.14 0.10 0.05 0.03 0.01 0.01 0.02 0.06
0.18 0.21 0.22 0.16 0.10 0.08 0.11 0.12 0.12 0.12 0.10 0.11 0.15 0.21 0.22 0.21 0.13 0.07 0.10 0.10 0.04 0.00 0.01 0.04 0.16 0.26 0.22 0.13 0.07 0.01 0.02 0.03 0.02 0.05 0.07 0.04 0.02 0.00 0.00 0.00 0.00 0.01 0.04
0.16 0.20 0.27 0.24 0.25 0.19 0.15 0.09 0.07 0.10 0.10 0.09 0.12 0.16 0.23 0.21 0.15 0.06 0.07 0.18 0.14 0.05 0.02 0.01 0.02 0.16 0.17 0.16 0.14 0.03 0.01 0.02 0.03 0.06 0.05 0.01 0.00 0.00 0.00 0.00 0.00 0.00 0.01
0.32 0.29 0.22 0.26 0.33 0.29 0.22 0.15 0.08 0.06 0.07 0.08 0.10 0.13 0.20 0.18 0.20 0.18 0.13 0.14 0.24 0.14 0.05 0.02 0.02 0.05 0.08 0.07 0.13 0.14 0.05 0.02 0.02 0.05 0.06 0.02 0.00 0.00 0.00 0.00 0.00 0.00 0.00
0.54 0.53 0.45 0.32 0.34 0.30 0.24 0.23 0.19 0.15 0.13 0.09 0.07 0.08 0.16 0.26 0.26 0.24 0.16 0.10 0.16 0.21 0.09 0.04 0.02 0.02 0.04 0.06 0.09 0.16 0.11 0.10 0.08 0.05 0.07 0.03 0.00 0.00 0.00 0.00 0.00 0.00 0.00
0.64 0.85 0.86 0.72 0.45 0.34 0.25 0.26 0.28 0.26 0.30 0.37 0.39 0.25 0.15 0.24 0.28 0.28 0.24 0.17 0.16 0.12 0.18 0.12 0.15 0.05 0.03 0.06 0.05 0.06 0.08 0.10 0.13 0.12 0.08 0.05 0.02 0.00 0.00 0.00 0.00 0.00 0.00
0.40 0.67 0.86 0.98 1.17 0.86 0.58 0.41 0.41 0.41 0.63 0.87 0.89 0.60 0.41 0.42 0.31 0.29 0.29 0.26 0.16 0.09 0.17 0.21 0.19 0.17 0.11 0.05 0.02 0.05 0.11 0.12 0.14 0.16 0.26 0.19 0.12 0.00 0.00 0.00 0.00 0.00 0.00
0.17 0.36 0.69 0.73 0.67 0.83 0.96 0.99 1.07 1.06 0.93 0.90 0.96 1.14 1.07 0.74 0.59 0.39 0.29 0.28 0.42 0.53 0.46 0.47 0.47 0.36 0.21 0.12 0.04 0.04 0.04 0.07 0.11 0.15 0.22 0.12 0.07 0.02 0.00 0.00 0.00 0.00 0.00
0.16 0.27 0.35 0.39 0.68 0.86 0.58 0.71 0.58 0.77 0.99 1.13 1.33 0.96 0.63 0.51 0.44 0.41 0.39 0.40 0.34 0.51 0.81 1.36 1.49 1.60 1.56 1.07 0.39 0.10 0.01 0.02 0.02 0.05 0.11 0.16 0.10 0.06 0.01 0.00 0.00 0.00 0.00
0.05 0.23 0.37 0.41 0.49 0.55 0.55 0.56 0.37 0.27 0.30 0.39 0.41 0.72 1.09 0.92 0.51 0.28 0.22 0.17 0.19 0.20 0.30 0.31 0.63 1.01 1.00 0.91 0.70 0.33 0.10 0.05 0.06 0.06 0.07 0.07 0.09 0.07 0.05 0.02 0.01 0.00 0.00
0.05 0.20 0.35 0.45 0.87 0.98 0.75 0.55 0.80 0.71 0.49 0.38 0.39 0.52 0.42 0.39 0.48 0.56 0.41 0.24 0.16 0.10 0.12 0.15 0.19 0.28 0.27 0.32 0.40 0.39 0.16 0.16 0.10 0.10 0.08 0.07 0.05 0.05 0.06 0.04 0.03 0.02 0.01
0.06 0.17 0.75 0.97 1.09 1.33 1.67 0.96 0.80 1.12 1.35 0.94 0.72 0.54 0.52 0.46 0.31 0.25 0.26 0.26 0.28 0.20 0.21 0.25 0.23 0.24 0.24 0.29 0.27 0.35 0.41 0.41 0.43 0.36 0.22 0.11 0.10 0.07 0.05 0.10 0.11 0.09 0.05
0.12 0.13 0.36 1.33 1.41 1.39 1.72 1.66 1.17 1.12 1.59 1.77 1.47 1.19 0.86 0.86 0.85 0.71 0.50 0.47 0.40 0.30 0.25 0.26 0.30 0.35 0.39 0.43 0.42 0.72 0.78 0.69 0.67 0.61 0.52 0.35 0.22 0.14 0.12 0.12 0.20 0.25 0.21
0.17 0.20 0.23 0.83 1.31 1.32 1.31 1.50 1.40 1.11 1.17 1.58 1.76 1.90 1.89 1.23 0.93 0.93 0.94 0.80 0.63 0.38 0.23 0.21 0.36 0.48 0.55 0.57 0.54 0.60 0.53 0.56 0.64 0.63 0.55 0.44 0.33 0.26 0.21 0.20 0.23 0.23 0.23
0.16 0.17 0.40 0.62 0.59 0.58 0.67 1.41 1.74 1.55 1.42 1.38 1.33 1.43 1.77 1.88 1.43 1.22 1.21 1.24 1.22 0.92 0.67 0.60 0.64 0.43 0.47 0.42 0.54 0.63 0.49 0.44 0.47 0.48 0.47 0.41 0.32 0.25 0.20 0.18 0.21 0.25 0.24
0.34 0.33 0.30 0.44 0.61 0.56 0.71 0.95 1.09 1.26 1.48 1.61 1.43 1.45 1.71 1.98 1.81 1.70 1.59 1.48 1.35 1.44 1.88 1.60 0.98 0.78 0.65 0.43 0.43 0.49 0.47 0.40 0.34 0.37 0.37 0.41 0.41 0.32 0.25 0.22 0.23 0.27 0.29
0.62 0.45 0.38 0.37 0.54 0.72 0.89 0.98 1.06 1.18 1.06 1.02 1.17 1.08 1.17 1.22 1.26 1.26 1.38 1.55 1.56 1.55 1.66 1.93 2.06 1.85 1.49 1.16 0.92 0.69 0.46 0.42 0.37 0.41 0.43 0.40 0.36 0.32 0.24 0.20 0.18 0.20 0.24
0.89 0.98 0.75 0.62 0.63 0.80 0.90 1.15 0.97 0.86 0.97 1.24 1.26 1.23 1.19 1.10 1.08 1.07 0.99 0.88 0.88 0.97 1.31 1.58 1.86 1.86 1.69 1.38 1.06 0.88 0.88 0.70 0.42 0.34 0.32 0.38 0.42 0.32 0.24 0.22 0.18 0.18 0.20
0.82 1.24 1.43 1.49 1.26 0.97 1.07 1.05 1.02 1.07 0.96 1.20 1.24 0.93 1.13 1.22 1.06 0.97 1.10 1.11 0.92 0.86 0.93 1.16 1.38 1.44 1.44 1.41 1.44 1.41 1.23 1.02 0.97 0.82 0.65 0.48 0.40 0.37 0.28 0.20 0.19 0.22 0.25
0.32 0.89 0.96 1.07 0.93 0.72 0.70 0.49 0.41 0.79 0.87 0.76 0.97 0.76 0.61 0.57 0.60 0.43 0.37 0.53 0.60 0.66 0.80 0.87 1.00 1.04 1.08 1.10 1.22 1.35 1.37 1.32 1.18 0.94 0.79 0.74 0.65 0.49 0.45 0.41 0.31 0.26 0.27
0.02 0.07 0.05 0.10 0.33 0.28 0.20 0.08 0.06 0.22 0.31 0.25 0.28 0.25 0.21 0.20 0.23 0.27 0.26 0.21 0.22 0.24 0.30 0.47 0.60 0.67 0.73 0.79 0.86 0.94 1.04 1.12 1.08 0.79 0.92 0.88 0.77 0.77 0.73 0.61 0.60 0.43 0.26
0.00 0.00 0.00 0.00 0.01 0.04 0.04 0.05 0.02 0.03 0.05 0.09 0.10 0.09 0.07 0.06 0.09 0.11 0.13 0.13 0.13 0.14 0.15 0.13 0.21 0.31 0.34 0.36 0.35 0.37 0.41 0.45 0.53 0.48 0.62 0.66 0.51 0.54 0.57 0.63 0.64 0.60 0.47
0.00 0.00 0.00 0.00 0.00 0.00 0.00 0.01 0.01 0.00 0.00 0.01 0.01 0.02 0.02 0.02 0.02 0.05 0.04 0.04 0.04 0.05 0.06 0.06 0.06 0.07 0.09 0.10 0.14 0.18 0.18 0.21 0.20 0.16 0.21 0.34 0.20 0.20 0.19 0.22 0.22 0.19 0.23
0.00 0.00 0.00 0.00 0.00 0.00 0.00 0.00 0.00 0.00 0.00 0.00 0.00 0.00 0.00 0.00 0.00 0.01 0.01 0.01 0.01 0.02 0.01 0.01 0.01 0.01 0.01 0.00 0.00 0.02 0.03 0.04 0.07 0.10 0.09 0.12 0.08 0.07 0.07 0.09 0.05 0.07 0.11
0.00 0.00 0.00 0.00 0.00 0.00 0.00 0.00 0.00 0.00 0.00 0.00 0.00 0.00 0.00 0.00 0.00 0.00 0.00 0.01 0.02 0.02 0.01 0.00 0.00 0.00 0.00 0.00 0.00 0.01 0.02 0.03 0.07 0.12 0.14 0.15 0.08 0.07 0.07 0.04 0.01 0.02 0.03

GFSMA_prec_precacc24_162.txt.gz
Total_Precipitation_Accumulation
0.10 0.11 0.06 0.07 0.05 0.09 0.12 0.15 0.15 0.20 0.26 0.32 0.24 0.20 0.14 0.12 0.07 0.09 0.07 0.02 0.02 0.13 0.25 0.16 0.11 0.05 0.02 0.00 0.05 0.09 0.10 0.13 0.22 0.27 0.24 0.17 0.12 0.12 0.07 0.10 0.06 0.07 0.09
0.15 0.18 0.13 0.11 0.08 0.09 0.13 0.14 0.11 0.11 0.13 0.21 0.23 0.23 0.15 0.13 0.10 0.08 0.09 0.04 0.05 0.03 0.16 0.31 0.29 0.15 0.07 0.01 0.02 0.03 0.06 0.06 0.08 0.15 0.16 0.14 0.10 0.05 0.03 0.01 0.00 0.01 0.05
0.18 0.21 0.22 0.16 0.10 0.08 0.11 0.12 0.12 0.12 0.10 0.11 0.15 0.21 0.21 0.20 0.13 0.07 0.10 0.10 0.04 0.03 0.03 0.08 0.23 0.29 0.23 0.14 0.07 0.01 0.02 0.01 0.02 0.05 0.05 0.03 0.02 0.00 0.00 0.00 0.00 0.01 0.03
0.14 0.20 0.27 0.24 0.25 0.19 0.15 0.09 0.07 0.10 0.10 0.09 0.11 0.15 0.22 0.21 0.15 0.06 0.07 0.19 0.15 0.06 0.10 0.11 0.15 0.26 0.22 0.17 0.13 0.03 0.01 0.01 0.01 0.03 0.04 0.00 0.00 0.00 0.00 0.00 0.00 0.00 0.00
0.19 0.26 0.22 0.26 0.33 0.29 0.22 0.15 0.08 0.06 0.07 0.08 0.10 0.13 0.20 0.18 0.20 0.18 0.13 0.14 0.25 0.15 0.07 0.08 0.15 0.22 0.23 0.20 0.16 0.11 0.04 0.02 0.01 0.03 0.04 0.02 0.00 0.00 0.00 0.00 0.00 0.00 0.00
0.18 0.38 0.42 0.32 0.34 0.30 0.24 0.23 0.19 0.15 0.13 0.09 0.07 0.08 0.16 0.26 0.26 0.24 0.16 0.10 0.16 0.21 0.09 0.05 0.10 0.16 0.23 0.25 0.24 0.16 0.10 0.09 0.06 0.03 0.05 0.02 0.00 0.00 0.00 0.00 0.00 0.00 0.00
0.10 0.51 0.71 0.68 0.45 0.34 0.25 0.26 0.28 0.26 0.30 0.37 0.39 0.25 0.15 0.24 0.28 0.28 0.24 0.17 0.16 0.12 0.19 0.13 0.19 0.16 0.25 0.31 0.23 0.12 0.11 0.09 0.11 0.10 0.07 0.04 0.02 0.00 0.00 0.00 0.00 0.00 0.00
0.03 0.13 0.52 0.90 1.15 0.85 0.57 0.40 0.41 0.41 0.63 0.87 0.89 0.60 0.41 0.42 0.31 0.29 0.29 0.26 0.16 0.09 0.17 0.22 0.22 0.24 0.31 0.31 0.25 0.22 0.17 0.14 0.12 0.12 0.22 0.16 0.11 0.00 0.00 0.00 0.00 0.00 0.00
0.01 0.05 0.32 0.62 0.65 0.82 0.96 0.99 1.07 1.06 0.93 0.90 0.96 1.16 1.08 0.75 0.59 0.39 0.29 0.28 0.42 0.53 0.47 0.47 0.51 0.44 0.35 0.31 0.25 0.29 0.22 0.18 0.17 0.13 0.17 0.09 0.07 0.02 0.00 0.00 0.00 0.00 0.00
0.01 0.03 0.11 0.23 0.60 0.83 0.57 0.71 0.58 0.77 0.99 1.12 1.33 0.96 0.64 0.52 0.45 0.41 0.39 0.40 0.34 0.51 0.82 1.37 1.51 1.65 1.67 1.59 1.42 1.21 1.14 0.93 0.30 0.15 0.14 0.11 0.06 0.05 0.01 0.00 0.00 0.00 0.00
0.00 0.02 0.05 0.08 0.24 0.45 0.52 0.55 0.37 0.28 0.31 0.40 0.42 0.73 1.09 0.92 0.52 0.28 0.22 0.17 0.19 0.21 0.30 0.31 0.64 1.03 1.06 0.97 0.90 0.98 0.97 1.14 0.81 0.36 0.24 0.13 0.07 0.06 0.05 0.02 0.01 0.00 0.00
0.02 0.02 0.02 0.05 0.12 0.44 0.65 0.52 0.78 0.71 0.49 0.38 0.40 0.53 0.43 0.41 0.50 0.58 0.42 0.24 0.16 0.10 0.12 0.16 0.20 0.30 0.30 0.34 0.41 0.50 0.43 0.44 0.63 0.58 0.28 0.20 0.10 0.05 0.06 0.03 0.03 0.02 0.01
0.03 0.04 0.02 0.03 0.07 0.22 1.02 0.89 0.75 1.10 1.34 0.94 0.72 0.55 0.53 0.47 0.32 0.27 0.28 0.27 0.28 0.20 0.19 0.22 0.24 0.25 0.25 0.30 0.30 0.39 0.50 0.52 0.52 0.63 0.49 0.26 0.20 0.14 0.07 0.09 0.10 0.08 0.05
0.08 0.05 0.03 0.03 0.06 0.13 0.39 1.21 1.03 1.04 1.56 1.75 1.46 1.19 0.85 0.85 0.85 0.71 0.52 0.47 0.37 0.28 0.23 0.25 0.28 0.32 0.39 0.45 0.44 0.73 0.81 0.76 0.78 0.73 0.66 0.52 0.37 0.29 0.23 0.16 0.19 0.24 0.21
0.10 0.11 0.09 0.09 0.11 0.12 0.19 0.64 0.90 0.80 0.91 1.31 1.55 1.79 1.84 1.19 0.91 0.88 0.90 0.80 0.60 0.38 0.24 0.21 0.34 0.49 0.55 0.54 0.57 0.59 0.55 0.65 0.81 0.84 0.80 0.68 0.54 0.48 0.39 0.31 0.27 0.23 0.25
0.12 0.09 0.15 0.15 0.14 0.20 0.21 0.37 0.52 0.55 0.45 0.63 0.81 0.98 1.56 1.77 1.35 1.13 1.06 1.01 1.04 0.85 0.65 0.56 0.60 0.42 0.46 0.44 0.60 0.60 0.51 0.49 0.75 0.93 0.87 0.96 1.03 0.70 0.46 0.39 0.34 0.28 0.26
0.28 0.22 0.16 0.16 0.25 0.20 0.34 0.44 0.53 0.50 0.41 0.33 0.41 0.75 1.44 1.89 1.70 1.54 1.42 1.31 1.18 1.27 1.67 1.42 0.91 0.75 0.61 0.41 0.41 0.46 0.46 0.40 0.36 0.50 0.68 0.78 0.97 1.30 0.86 0.54 0.48 0.40 0.18
0.46 0.35 0.32 0.30 0.32 0.39 0.50 0.60 0.58 0.72 0.67 0.60 0.68 0.74 1.09 1.20 1.24 1.24 1.34 1.47 1.44 1.40 1.47 1.75 1.96 1.66 1.23 1.02 0.84 0.64 0.42 0.39 0.36 0.41 0.44 0.47 0.50 0.60 0.77 0.73 0.54 0.55 0.38
0.76 0.89 0.74 0.61 0.53 0.63 0.68 0.88 0.67 0.58 0.63 1.03 1.11 1.16 1.18 1.11 1.10 1.08 1.00 0.89 0.89 0.91 1.23 1.48 1.69 1.66 1.58 1.37 1.09 0.91 0.87 0.66 0.40 0.34 0.32 0.39 0.47 0.44 0.47 0.55 0.63 0.58 0.48
0.81 1.21 1.42 1.47 1.23 0.89 0.90 0.84 0.82 0.96 0.89 1.14 1.20 0.92 1.13 1.22 1.08 0.99 1.12 1.16 1.00 0.91 0.96 1.17 1.40 1.47 1.46 1.38 1.22 1.19 1.14 0.96 0.93 0.81 0.66 0.50 0.48 0.56 0.53 0.48 0.45 0.53 0.59
0.32 0.89 0.94 1.04 0.91 0.69 0.67 0.45 0.36 0.76 0.86 0.76 0.98 0.76 0.60 0.57 0.60 0.43 0.37 0.55 0.66 0.78 0.89 0.94 1.06 1.11 1.14 1.12 1.25 1.35 1.28 1.25 1.17 1.00 0.87 0.82 0.76 0.67 0.65 0.60 0.59 0.55 0.53
0.02 0.07 0.05 0.10 0.33 0.28 0.19 0.08 0.06 0.22 0.31 0.25 0.28 0.24 0.21 0.20 0.22 0.27 0.27 0.22 0.25 0.29 0.34 0.45 0.55 0.61 0.74 0.80 0.80 0.83 0.94 1.01 1.05 0.94 1.12 1.12 0.99 0.97 0.98 0.93 0.92 0.75 0.59
0.00 0.00 0.00 0.00 0.01 0.04 0.04 0.05 0.02 0.03 0.05 0.09 0.10 0.09 0.07 0.06 0.09 0.11 0.13 0.13 0.14 0.16 0.19 0.16 0.22 0.29 0.30 0.32 0.31 0.32 0.37 0.40 0.54 0.57 0.70 0.77 0.67 0.76 0.82 0.92 1.00 0.97 0.85
0.00 0.00 0.00 0.00 0.00 0.00 0.00 0.01 0.01 0.00 0.00 0.01 0.01 0.02 0.02 0.02 0.02 0.05 0.04 0.04 0.04 0.05 0.06 0.06 0.07 0.06 0.06 0.06 0.07 0.09 0.10 0.13 0.13 0.12 0.17 0.29 0.20 0.24 0.28 0.31 0.31 0.30 0.34
0.00 0.00 0.00 0.00 0.00 0.00 0.00 0.00 0.00 0.00 0.00 0.00 0.00 0.00 0.00 0.00 0.00 0.01 0.01 0.01 0.01 0.02 0.01 0.02 0.02 0.01 0.01 0.00 0.00 0.01 0.02 0.02 0.05 0.07 0.05 0.08 0.06 0.08 0.10 0.11 0.05 0.06 0.11
0.00 0.00 0.00 0.00 0.00 0.00 0.00 0.00 0.00 0.00 0.00 0.00 0.00 0.00 0.00 0.00 0.00 0.00 0.00 0.01 0.02 0.02 0.01 0.00 0.00 0.00 0.00 0.00 0.00 0.01 0.02 0.02 0.03 0.05 0.03 0.03 0.02 0.03 0.04 0.03 0.01 0.01 0.03

GFSMA_prec_precacc24_168.txt.gz
Total_Precipitation_Accumulation
0.01 0.02 0.02 0.04 0.05 0.09 0.12 0.15 0.15 0.20 0.26 0.32 0.24 0.20 0.14 0.12 0.07 0.09 0.05 0.02 0.02 0.06 0.14 0.14 0.15 0.11 0.10 0.07 0.05 0.06 0.06 0.09 0.10 0.14 0.18 0.15 0.12 0.12 0.07 0.11 0.07 0.08 0.09
0.00 0.02 0.05 0.07 0.07 0.09 0.13 0.14 0.11 0.11 0.13 0.21 0.23 0.23 0.14 0.13 0.10 0.07 0.09 0.05 0.05 0.02 0.11 0.21 0.25 0.20 0.14 0.09 0.03 0.03 0.05 0.05 0.06 0.10 0.13 0.12 0.09 0.05 0.03 0.02 0.02 0.02 0.04
0.00 0.00 0.00 0.04 0.09 0.07 0.09 0.11 0.12 0.12 0.10 0.11 0.15 0.21 0.21 0.20 0.13 0.07 0.10 0.10 0.04 0.03 0.03 0.07 0.21 0.31 0.24 0.15 0.09 0.01 0.01 0.00 0.01 0.03 0.05 0.03 0.02 0.00 0.00 0.00 0.01 0.03 0.05
0.00 0.00 0.00 0.00 0.05 0.13 0.13 0.09 0.06 0.09 0.10 0.09 0.11 0.15 0.22 0.21 0.15 0.06 0.07 0.19 0.15 0.06 0.10 0.10 0.14 0.29 0.32 0.23 0.15 0.08 0.03 0.01 0.00 0.01 0.01 0.00 0.00 0.00 0.00 0.00 0.00 0.01 0.03
0.00 0.00 0.00 0.00 0.01 0.08 0.19 0.15 0.08 0.06 0.07 0.08 0.10 0.13 0.20 0.18 0.20 0.18 0.12 0.14 0.25 0.16 0.07 0.08 0.15 0.25 0.35 0.43 0.34 0.22 0.16 0.10 0.01 0.01 0.01 0.00 0.00 0.00 0.00 0.00 0.00 0.00 0.00
0.00 0.00 0.00 0.00 0.00 0.02 0.08 0.20 0.18 0.15 0.12 0.09 0.07 0.08 0.16 0.25 0.25 0.23 0.16 0.10 0.16 0.21 0.09 0.05 0.10 0.16 0.29 0.45 0.49 0.38 0.24 0.16 0.08 0.02 0.03 0.02 0.00 0.00 0.00 0.00 0.00 0.00 0.00
0.00 0.00 0.00 0.01 0.00 0.01 0.02 0.07 0.20 0.22 0.28 0.33 0.34 0.24 0.15 0.23 0.28 0.28 0.24 0.16 0.16 0.12 0.19 0.13 0.19 0.16 0.26 0.37 0.40 0.32 0.27 0.16 0.13 0.11 0.10 0.02 0.01 0.00 0.00 0.00 0.00 0.00 0.00
0.00 0.00 0.01 0.01 0.01 0.01 0.01 0.01 0.07 0.28 0.59 0.81 0.85 0.59 0.40 0.41 0.30 0.29 0.29 0.25 0.16 0.09 0.17 0.22 0.23 0.24 0.33 0.38 0.33 0.39 0.39 0.33 0.21 0.21 0.29 0.17 0.03 0.00 0.00 0.00 0.00 0.00 0.00
0.00 0.01 0.01 0.02 0.01 0.02 0.02 0.01 0.02 0.25 0.70 0.83 0.86 1.14 1.09 0.74 0.59 0.39 0.29 0.28 0.42 0.53 0.47 0.48 0.52 0.45 0.36 0.33 0.30 0.36 0.36 0.44 0.56 0.52 0.53 0.44 0.22 0.05 0.03 0.03 0.00 0.00 0.00
0.00 0.01 0.02 0.02 0.02 0.02 0.02 0.02 0.02 0.06 0.50 1.00 1.20 0.88 0.63 0.55 0.48 0.42 0.39 0.40 0.34 0.51 0.82 1.37 1.51 1.66 1.69 1.61 1.45 1.27 1.25 1.25 1.21 1.39 1.44 1.32 1.15 0.84 0.35 0.12 0.04 0.00 0.00
0.00 0.01 0.02 0.02 0.02 0.03 0.04 0.03 0.03 0.04 0.05 0.13 0.31 0.64 1.02 0.91 0.54 0.32 0.23 0.17 0.19 0.21 0.30 0.31 0.64 1.03 1.06 0.98 0.93 1.04 1.05 1.40 1.38 1.37 1.44 1.27 1.09 1.01 0.57 0.21 0.12 0.02 0.00
0.01 0.01 0.02 0.02 0.02 0.02 0.03 0.02 0.03 0.04 0.04 0.06 0.16 0.28 0.29 0.38 0.50 0.60 0.45 0.25 0.16 0.10 0.12 0.16 0.21 0.31 0.30 0.34 0.44 0.54 0.46 0.47 0.68 0.72 0.71 0.72 0.63 0.57 0.48 0.32 0.19 0.11 0.04
0.01 0.01 0.01 0.01 0.02 0.02 0.03 0.03 0.03 0.05 0.06 0.08 0.15 0.21 0.27 0.29 0.23 0.23 0.26 0.27 0.28 0.21 0.19 0.23 0.24 0.25 0.26 0.30 0.31 0.41 0.51 0.51 0.42 0.49 0.46 0.38 0.33 0.34 0.31 0.33 0.26 0.17 0.06
0.03 0.02 0.01 0.01 0.01 0.02 0.03 0.04 0.05 0.06 0.07 0.10 0.20 0.42 0.40 0.39 0.44 0.45 0.34 0.33 0.28 0.20 0.23 0.29 0.32 0.35 0.39 0.45 0.46 0.70 0.75 0.73 0.71 0.68 0.60 0.50 0.49 0.45 0.39 0.37 0.37 0.34 0.31
0.03 0.02 0.02 0.02 0.02 0.02 0.05 0.05 0.05 0.05 0.05 0.11 0.16 0.23 0.32 0.51 0.52 0.58 0.68 0.65 0.55 0.36 0.25 0.22 0.38 0.52 0.55 0.52 0.58 0.55 0.52 0.68 0.81 0.81 0.77 0.66 0.57 0.62 0.71 0.63 0.54 0.48 0.45
0.02 0.02 0.03 0.05 0.04 0.06 0.07 0.12 0.10 0.09 0.08 0.05 0.07 0.14 0.30 0.60 0.76 0.79 0.82 0.84 0.93 0.81 0.65 0.57 0.58 0.37 0.36 0.38 0.57 0.55 0.49 0.48 0.77 0.94 0.94 1.06 1.11 0.86 0.64 0.74 0.79 0.68 0.61
0.03 0.03 0.03 0.06 0.15 0.14 0.22 0.22 0.24 0.17 0.14 0.13 0.08 0.13 0.22 0.38 0.48 0.62 0.64 0.78 0.78 0.83 1.27 1.18 0.70 0.56 0.54 0.40 0.37 0.42 0.43 0.35 0.33 0.48 0.68 0.87 1.16 1.69 1.50 1.07 1.03 1.21 1.03
0.12 0.10 0.07 0.09 0.15 0.23 0.34 0.39 0.29 0.40 0.32 0.24 0.31 0.22 0.25 0.26 0.29 0.29 0.41 0.58 0.68 0.86 1.03 1.28 1.50 1.24 1.04 0.97 0.73 0.52 0.32 0.30 0.30 0.42 0.43 0.46 0.59 0.87 1.27 1.47 1.19 1.16 1.37
0.23 0.28 0.33 0.30 0.35 0.50 0.53 0.74 0.50 0.32 0.36 0.56 0.52 0.57 0.58 0.53 0.55 0.58 0.55 0.49 0.54 0.61 0.94 1.21 1.38 1.40 1.50 1.40 1.14 0.97 0.91 0.69 0.41 0.34 0.30 0.36 0.48 0.50 0.57 0.87 1.23 1.22 1.04
0.23 0.36 0.60 0.78 0.80 0.74 0.80 0.71 0.64 0.72 0.60 0.79 0.83 0.51 0.67 0.79 0.71 0.64 0.78 0.84 0.73 0.72 0.86 1.09 1.34 1.45 1.50 1.46 1.28 1.20 1.14 1.00 0.98 0.82 0.66 0.50 0.47 0.54 0.54 0.51 0.52 0.69 0.88
0.06 0.16 0.32 0.57 0.57 0.53 0.61 0.43 0.31 0.63 0.65 0.57 0.85 0.64 0.48 0.46 0.51 0.35 0.30 0.47 0.57 0.70 0.86 0.93 1.06 1.13 1.22 1.24 1.36 1.42 1.32 1.31 1.25 1.07 0.88 0.82 0.75 0.66 0.66 0.61 0.59 0.57 0.57
0.00 0.02 0.02 0.07 0.27 0.26 0.19 0.08 0.06 0.22 0.31 0.25 0.27 0.24 0.21 0.19 0.21 0.26 0.27 0.22 0.24 0.29 0.34 0.46 0.57 0.66 0.82 0.90 0.91 0.93 1.01 1.07 1.08 0.94 1.05 1.08 0.96 0.97 1.05 1.02 0.99 0.81 0.66
0.00 0.00 0.00 0.00 0.01 0.04 0.04 0.05 0.02 0.03 0.05 0.09 0.10 0.09 0.07 0.06 0.09 0.11 0.13 0.13 0.14 0.16 0.19 0.17 0.23 0.31 0.33 0.35 0.34 0.39 0.42 0.44 0.63 0.67 0.72 0.76 0.73 0.81 0.87 0.99 1.07 1.09 1.00
0.00 0.00 0.00 0.00 0.00 0.00 0.00 0.01 0.01 0.00 0.00 0.01 0.01 0.02 0.02 0.02 0.02 0.05 0.04 0.04 0.04 0.05 0.06 0.07 0.08 0.08 0.07 0.07 0.08 0.10 0.13 0.15 0.14 0.13 0.12 0.17 0.18 0.26 0.29 0.31 0.30 0.29 0.36
0.00 0.00 0.00 0.00 0.00 0.00 0.00 0.00 0.00 0.00 0.00 0.00 0.00 0.00 0.00 0.00 0.00 0.01 0.01 0.01 0.01 0.02 0.01 0.02 0.02 0.01 0.01 0.00 0.00 0.01 0.02 0.02 0.06 0.07 0.05 0.05 0.05 0.07 0.10 0.11 0.05 0.03 0.05
0.00 0.00 0.00 0.00 0.00 0.00 0.00 0.00 0.00 0.00 0.00 0.00 0.00 0.00 0.00 0.00 0.00 0.00 0.00 0.01 0.01 0.01 0.01 0.00 0.00 0.00 0.00 0.00 0.00 0.01 0.01 0.01 0.01 0.04 0.04 0.02 0.01 0.02 0.03 0.02 0.01 0.01 0.01

GFSMA_prec_precacc24_171.txt.gz
Total_Precipitation_Accumulation
0.00 0.00 0.00 0.01 0.01 0.05 0.09 0.14 0.15 0.20 0.26 0.32 0.24 0.20 0.14 0.12 0.07 0.09 0.05 0.02 0.02 0.05 0.09 0.14 0.14 0.13 0.13 0.08 0.05 0.04 0.04 0.04 0.05 0.08 0.12 0.09 0.07 0.10 0.07 0.11 0.07 0.07 0.09
0.00 0.00 0.00 0.00 0.00 0.03 0.08 0.11 0.09 0.10 0.12 0.21 0.23 0.23 0.14 0.13 0.10 0.07 0.09 0.05 0.04 0.02 0.08 0.15 0.22 0.20 0.15 0.12 0.05 0.03 0.03 0.03 0.03 0.06 0.09 0.09 0.05 0.04 0.03 0.02 0.02 0.02 0.03
0.00 0.00 0.00 0.00 0.00 0.00 0.03 0.07 0.09 0.10 0.10 0.11 0.15 0.21 0.21 0.20 0.13 0.07 0.10 0.10 0.04 0.03 0.03 0.06 0.18 0.24 0.20 0.12 0.06 0.01 0.01 0.00 0.00 0.01 0.03 0.02 0.02 0.00 0.00 0.00 0.01 0.03 0.04
0.00 0.00 0.00 0.00 0.00 0.00 0.00 0.01 0.04 0.07 0.09 0.09 0.11 0.15 0.22 0.21 0.15 0.06 0.07 0.19 0.15 0.06 0.10 0.10 0.14 0.28 0.30 0.19 0.13 0.08 0.04 0.01 0.00 0.00 0.00 0.00 0.00 0.00 0.00 0.00 0.00 0.01 0.03
0.00 0.00 0.00 0.00 0.00 0.00 0.00 0.00 0.02 0.05 0.06 0.07 0.10 0.13 0.20 0.18 0.20 0.18 0.12 0.14 0.25 0.16 0.07 0.08 0.15 0.25 0.35 0.43 0.32 0.19 0.15 0.12 0.04 0.01 0.00 0.00 0.00 0.00 0.00 0.00 0.00 0.00 0.00
0.00 0.00 0.00 0.00 0.00 0.00 0.00 0.00 0.00 0.03 0.10 0.08 0.07 0.08 0.16 0.25 0.25 0.23 0.15 0.10 0.16 0.21 0.08 0.05 0.10 0.16 0.29 0.45 0.49 0.37 0.22 0.15 0.12 0.07 0.02 0.01 0.00 0.00 0.00 0.00 0.00 0.00 0.00
0.00 0.00 0.00 0.01 0.00 0.01 0.00 0.00 0.00 0.01 0.12 0.28 0.29 0.22 0.14 0.23 0.28 0.28 0.23 0.16 0.16 0.12 0.18 0.13 0.19 0.16 0.26 0.37 0.40 0.31 0.27 0.14 0.12 0.14 0.10 0.03 0.00 0.00 0.00 0.00 0.00 0.00 0.00
0.00 0.00 0.01 0.01 0.01 0.01 0.01 0.00 0.01 0.01 0.02 0.15 0.49 0.52 0.38 0.40 0.30 0.29 0.29 0.25 0.16 0.09 0.17 0.22 0.23 0.24 0.34 0.38 0.34 0.39 0.40 0.32 0.19 0.20 0.28 0.26 0.07 0.03 0.01 0.03 0.01 0.00 0.00
0.00 0.01 0.01 0.01 0.01 0.01 0.02 0.01 0.01 0.02 0.03 0.01 0.13 0.66 0.99 0.72 0.59 0.39 0.29 0.28 0.42 0.53 0.47 0.48 0.52 0.45 0.37 0.34 0.31 0.36 0.37 0.44 0.56 0.51 0.53 0.51 0.41 0.27 0.18 0.13 0.06 0.01 0.00
0.00 0.01 0.01 0.01 0.02 0.02 0.02 0.02 0.02 0.02 0.04 0.04 0.02 0.03 0.21 0.50 0.48 0.42 0.39 0.40 0.34 0.51 0.82 1.37 1.52 1.67 1.69 1.61 1.45 1.27 1.25 1.25 1.21 1.38 1.43 1.32 1.22 1.29 1.33 1.09 0.59 0.15 0.01
0.00 0.00 0.01 0.01 0.01 0.02 0.03 0.03 0.02 0.03 0.04 0.05 0.06 0.06 0.22 0.55 0.48 0.33 0.24 0.17 0.19 0.21 0.30 0.32 0.65 1.03 1.06 0.98 0.94 1.04 1.05 1.40 1.38 1.37 1.44 1.27 1.07 1.07 1.21 1.62 1.36 0.45 0.12
0.01 0.01 0.01 0.01 0.01 0.01 0.02 0.02 0.02 0.03 0.04 0.05 0.07 0.07 0.09 0.20 0.42 0.58 0.45 0.25 0.16 0.10 0.14 0.17 0.21 0.31 0.30 0.35 0.44 0.55 0.46 0.47 0.69 0.72 0.69 0.71 0.62 0.57 0.53 0.49 0.67 0.61 0.25
0.01 0.01 0.01 0.01 0.01 0.01 0.02 0.02 0.03 0.04 0.05 0.06 0.07 0.10 0.11 0.12 0.14 0.15 0.21 0.26 0.28 0.21 0.22 0.26 0.26 0.27 0.27 0.31 0.31 0.41 0.51 0.51 0.41 0.45 0.43 0.38 0.33 0.33 0.31 0.31 0.28 0.26 0.16
0.03 0.02 0.01 0.01 0.01 0.01 0.01 0.02 0.04 0.05 0.05 0.08 0.09 0.10 0.15 0.17 0.21 0.24 0.24 0.23 0.20 0.18 0.26 0.32 0.34 0.37 0.41 0.48 0.47 0.70 0.74 0.71 0.69 0.63 0.55 0.49 0.53 0.50 0.42 0.38 0.35 0.34 0.38
0.03 0.02 0.02 0.01 0.01 0.01 0.01 0.02 0.03 0.03 0.04 0.09 0.13 0.16 0.20 0.23 0.25 0.28 0.34 0.41 0.42 0.30 0.24 0.23 0.40 0.53 0.57 0.54 0.60 0.54 0.53 0.69 0.79 0.78 0.73 0.65 0.58 0.61 0.71 0.66 0.57 0.48 0.45
0.01 0.02 0.02 0.02 0.02 0.01 0.01 0.02 0.06 0.05 0.06 0.05 0.06 0.11 0.18 0.17 0.15 0.24 0.35 0.36 0.67 0.65 0.59 0.54 0.57 0.39 0.37 0.37 0.59 0.55 0.49 0.48 0.77 0.94 0.94 1.10 1.15 0.88 0.65 0.76 0.84 0.70 0.59
0.02 0.03 0.03 0.03 0.05 0.04 0.05 0.11 0.21 0.14 0.11 0.11 0.06 0.10 0.12 0.16 0.18 0.19 0.17 0.29 0.41 0.69 1.20 1.12 0.69 0.55 0.47 0.36 0.36 0.40 0.42 0.34 0.32 0.48 0.68 0.89 1.22 1.74 1.55 1.12 1.06 1.24 1.04
0.05 0.05 0.03 0.03 0.06 0.08 0.15 0.19 0.18 0.31 0.26 0.18 0.24 0.14 0.17 0.14 0.14 0.13 0.13 0.14 0.22 0.52 0.86 1.17 1.40 1.20 0.83 0.70 0.59 0.46 0.31 0.30 0.29 0.41 0.42 0.46 0.62 0.94 1.34 1.55 1.36 1.31 1.44
0.02 0.01 0.02 0.03 0.08 0.24 0.31 0.56 0.39 0.21 0.25 0.39 0.40 0.36 0.32 0.31 0.29 0.29 0.28 0.25 0.26 0.29 0.58 0.93 1.15 1.20 1.22 1.10 0.92 0.79 0.75 0.60 0.40 0.35 0.31 0.37 0.49 0.52 0.64 0.94 1.30 1.38 1.28
0.02 0.02 0.04 0.09 0.11 0.11 0.19 0.30 0.42 0.39 0.38 0.54 0.67 0.44 0.55 0.55 0.46 0.40 0.53 0.61 0.54 0.51 0.60 0.79 1.06 1.20 1.26 1.25 1.11 1.07 1.02 0.89 0.90 0.84 0.69 0.51 0.47 0.56 0.56 0.55 0.58 0.74 0.94
0.00 0.02 0.04 0.08 0.11 0.12 0.18 0.25 0.17 0.41 0.33 0.44 0.79 0.62 0.47 0.44 0.48 0.31 0.28 0.42 0.48 0.56 0.68 0.75 0.89 0.97 1.05 1.09 1.25 1.35 1.29 1.31 1.26 1.09 0.91 0.85 0.77 0.67 0.67 0.62 0.60 0.58 0.57
0.00 0.00 0.00 0.02 0.07 0.08 0.09 0.04 0.04 0.17 0.26 0.23 0.27 0.24 0.21 0.19 0.20 0.24 0.24 0.20 0.24 0.28 0.33 0.44 0.55 0.65 0.82 0.89 0.91 0.92 1.00 1.07 1.08 0.94 1.07 1.10 0.98 0.98 1.06 1.05 1.00 0.81 0.65
0.00 0.00 0.00 0.00 0.00 0.03 0.03 0.03 0.01 0.03 0.05 0.09 0.10 0.09 0.07 0.06 0.09 0.11 0.13 0.12 0.13 0.15 0.19 0.17 0.23 0.31 0.32 0.34 0.35 0.39 0.42 0.44 0.63 0.67 0.73 0.76 0.73 0.82 0.88 1.00 1.09 1.10 1.01
0.00 0.00 0.00 0.00 0.00 0.00 0.00 0.01 0.01 0.00 0.00 0.01 0.01 0.02 0.02 0.02 0.02 0.05 0.04 0.04 0.04 0.05 0.06 0.06 0.08 0.08 0.07 0.06 0.07 0.10 0.13 0.15 0.14 0.13 0.12 0.17 0.18 0.26 0.29 0.31 0.30 0.29 0.36
0.00 0.00 0.00 0.00 0.00 0.00 0.00 0.00 0.00 0.00 0.00 0.00 0.00 0.00 0.00 0.00 0.00 0.01 0.01 0.01 0.01 0.02 0.01 0.02 0.02 0.01 0.01 0.00 0.00 0.01 0.02 0.02 0.06 0.07 0.05 0.05 0.05 0.07 0.11 0.11 0.05 0.03 0.05
0.00 0.00 0.00 0.00 0.00 0.00 0.00 0.00 0.00 0.00 0.00 0.00 0.00 0.00 0.00 0.00 0.00 0.00 0.00 0.01 0.01 0.01 0.01 0.00 0.00 0.00 0.00 0.00 0.00 0.00 0.01 0.01 0.01 0.04 0.04 0.02 0.01 0.02 0.03 0.02 0.01 0.01 0.01

GFSMA_prec_precacc24_174.txt.gz
Total_Precipitation_Accumulation
0.00 0.00 0.00 0.00 0.00 0.02 0.06 0.10 0.12 0.18 0.23 0.31 0.24 0.20 0.14 0.12 0.07 0.09 0.05 0.02 0.02 0.05 0.06 0.11 0.13 0.14 0.15 0.11 0.07 0.05 0.04 0.03 0.03 0.02 0.05 0.05 0.02 0.03 0.04 0.10 0.07 0.07 0.08
0.00 0.00 0.00 0.00 0.00 0.00 0.01 0.06 0.07 0.09 0.11 0.17 0.21 0.23 0.14 0.13 0.10 0.07 0.09 0.05 0.04 0.02 0.07 0.11 0.20 0.20 0.16 0.14 0.07 0.06 0.05 0.03 0.02 0.04 0.05 0.04 0.01 0.00 0.00 0.01 0.02 0.02 0.03
0.00 0.00 0.00 0.00 0.00 0.00 0.00 0.00 0.03 0.08 0.09 0.09 0.11 0.20 0.21 0.20 0.13 0.07 0.10 0.10 0.04 0.03 0.03 0.06 0.15 0.22 0.18 0.12 0.05 0.02 0.03 0.01 0.00 0.00 0.02 0.01 0.01 0.00 0.00 0.00 0.01 0.03 0.04
0.00 0.00 0.00 0.00 0.00 0.00 0.00 0.00 0.00 0.03 0.07 0.09 0.10 0.12 0.20 0.21 0.15 0.06 0.07 0.19 0.15 0.06 0.10 0.10 0.14 0.27 0.28 0.17 0.12 0.08 0.04 0.02 0.02 0.01 0.00 0.00 0.00 0.00 0.00 0.00 0.00 0.01 0.03
0.00 0.00 0.00 0.00 0.00 0.00 0.00 0.00 0.00 0.00 0.02 0.06 0.09 0.11 0.15 0.17 0.20 0.18 0.12 0.14 0.25 0.16 0.07 0.08 0.15 0.25 0.35 0.42 0.31 0.18 0.15 0.14 0.07 0.04 0.02 0.01 0.02 0.05 0.05 0.01 0.00 0.00 0.00
0.00 0.00 0.00 0.00 0.00 0.00 0.00 0.00 0.00 0.00 0.00 0.02 0.05 0.07 0.12 0.21 0.24 0.23 0.15 0.10 0.16 0.21 0.08 0.05 0.10 0.16 0.29 0.45 0.49 0.35 0.22 0.14 0.12 0.10 0.08 0.05 0.04 0.06 0.07 0.06 0.02 0.00 0.00
0.00 0.00 0.00 0.00 0.00 0.00 0.00 0.00 0.00 0.00 0.00 0.00 0.04 0.06 0.08 0.16 0.22 0.26 0.23 0.16 0.16 0.12 0.18 0.13 0.18 0.16 0.26 0.37 0.41 0.32 0.25 0.13 0.10 0.14 0.12 0.09 0.14 0.12 0.08 0.12 0.08 0.02 0.00
0.00 0.00 0.01 0.01 0.01 0.01 0.00 0.00 0.01 0.01 0.01 0.00 0.02 0.07 0.10 0.14 0.18 0.25 0.26 0.23 0.16 0.08 0.16 0.21 0.22 0.25 0.35 0.39 0.35 0.40 0.40 0.31 0.17 0.18 0.25 0.26 0.17 0.18 0.16 0.22 0.17 0.08 0.02
0.00 0.00 0.01 0.01 0.01 0.01 0.01 0.01 0.01 0.01 0.02 0.01 0.01 0.07 0.11 0.08 0.12 0.18 0.25 0.26 0.40 0.51 0.46 0.47 0.51 0.46 0.37 0.34 0.31 0.36 0.37 0.44 0.55 0.49 0.50 0.50 0.42 0.33 0.34 0.34 0.27 0.20 0.10
0.00 0.00 0.01 0.00 0.01 0.01 0.01 0.01 0.02 0.02 0.04 0.03 0.01 0.01 0.06 0.10 0.12 0.09 0.22 0.35 0.32 0.50 0.81 1.36 1.51 1.66 1.69 1.62 1.45 1.28 1.25 1.25 1.21 1.38 1.42 1.31 1.22 1.31 1.42 1.29 0.82 0.39 0.18
0.00 0.00 0.01 0.00 0.01 0.01 0.02 0.02 0.02 0.02 0.03 0.04 0.04 0.03 0.03 0.04 0.08 0.13 0.09 0.10 0.14 0.18 0.30 0.32 0.65 1.03 1.06 0.98 0.94 1.04 1.05 1.40 1.38 1.37 1.44 1.26 1.06 1.07 1.25 1.73 1.77 1.24 0.64
0.00 0.01 0.01 0.01 0.01 0.01 0.02 0.01 0.02 0.02 0.03 0.04 0.05 0.05 0.05 0.09 0.07 0.11 0.09 0.07 0.10 0.08 0.15 0.18 0.22 0.31 0.30 0.35 0.45 0.56 0.46 0.47 0.69 0.72 0.70 0.71 0.63 0.58 0.56 0.55 0.80 1.05 0.80
0.01 0.01 0.01 0.01 0.01 0.01 0.01 0.02 0.02 0.03 0.04 0.05 0.05 0.07 0.08 0.10 0.12 0.12 0.12 0.10 0.16 0.14 0.20 0.26 0.27 0.28 0.28 0.32 0.33 0.43 0.52 0.51 0.41 0.44 0.42 0.38 0.33 0.33 0.32 0.33 0.31 0.32 0.26
0.02 0.01 0.01 0.01 0.01 0.01 0.01 0.01 0.02 0.02 0.03 0.06 0.07 0.07 0.09 0.11 0.15 0.18 0.20 0.20 0.15 0.11 0.20 0.29 0.34 0.38 0.44 0.51 0.51 0.68 0.71 0.69 0.66 0.61 0.50 0.46 0.51 0.48 0.39 0.36 0.33 0.31 0.32
0.02 0.02 0.01 0.01 0.01 0.00 0.01 0.01 0.01 0.01 0.02 0.06 0.09 0.08 0.10 0.14 0.17 0.22 0.28 0.33 0.35 0.23 0.16 0.16 0.36 0.53 0.57 0.53 0.62 0.55 0.52 0.70 0.77 0.74 0.69 0.60 0.54 0.60 0.69 0.66 0.54 0.52 0.47
0.01 0.01 0.01 0.02 0.02 0.01 0.01 0.01 0.01 0.00 0.02 0.04 0.04 0.05 0.06 0.09 0.11 0.16 0.24 0.26 0.41 0.47 0.47 0.38 0.42 0.33 0.30 0.32 0.58 0.54 0.49 0.46 0.75 0.92 0.93 1.09 1.15 0.90 0.69 0.79 0.94 0.80 0.65
0.00 0.01 0.02 0.02 0.02 0.02 0.01 0.02 0.02 0.03 0.03 0.08 0.05 0.07 0.07 0.10 0.14 0.15 0.13 0.18 0.24 0.37 0.93 0.81 0.45 0.44 0.40 0.32 0.33 0.39 0.40 0.33 0.31 0.47 0.68 0.89 1.23 1.76 1.58 1.17 1.09 1.35 1.24
0.00 0.00 0.01 0.02 0.04 0.04 0.03 0.04 0.05 0.18 0.18 0.13 0.21 0.10 0.13 0.11 0.12 0.12 0.12 0.12 0.16 0.36 0.60 0.83 0.91 0.82 0.71 0.70 0.60 0.47 0.31 0.30 0.30 0.41 0.42 0.46 0.62 0.94 1.36 1.59 1.41 1.35 1.49
0.00 0.00 0.00 0.00 0.02 0.04 0.05 0.07 0.10 0.13 0.20 0.33 0.34 0.29 0.21 0.23 0.21 0.23 0.23 0.20 0.21 0.22 0.45 0.69 0.80 0.75 0.85 0.98 0.90 0.79 0.74 0.58 0.38 0.34 0.30 0.36 0.49 0.52 0.65 1.00 1.40 1.45 1.32
0.00 0.00 0.00 0.00 0.00 0.00 0.01 0.02 0.07 0.11 0.14 0.25 0.41 0.28 0.33 0.35 0.29 0.25 0.34 0.38 0.31 0.29 0.36 0.48 0.65 0.75 0.81 0.89 0.92 0.98 0.98 0.86 0.81 0.69 0.58 0.47 0.44 0.53 0.54 0.55 0.62 0.81 1.05
0.00 0.00 0.00 0.00 0.01 0.01 0.01 0.01 0.02 0.05 0.07 0.10 0.19 0.23 0.18 0.21 0.30 0.19 0.18 0.32 0.36 0.39 0.47 0.51 0.61 0.68 0.74 0.79 0.96 1.08 1.09 1.18 1.18 1.03 0.87 0.79 0.70 0.60 0.62 0.60 0.61 0.59 0.59
0.00 0.00 0.00 0.00 0.00 0.00 0.01 0.00 0.01 0.05 0.06 0.08 0.14 0.14 0.12 0.11 0.15 0.21 0.22 0.18 0.21 0.26 0.30 0.39 0.48 0.58 0.75 0.82 0.84 0.86 0.92 0.97 0.97 0.91 1.06 1.09 0.99 0.98 1.06 1.05 1.00 0.82 0.65
0.00 0.00 0.00 0.00 0.00 0.00 0.01 0.01 0.00 0.01 0.01 0.03 0.06 0.07 0.07 0.05 0.08 0.10 0.12 0.12 0.13 0.15 0.18 0.16 0.21 0.29 0.30 0.32 0.33 0.38 0.41 0.43 0.62 0.66 0.71 0.75 0.73 0.82 0.89 1.00 1.09 1.10 1.01
0.00 0.00 0.00 0.00 0.00 0.00 0.00 0.00 0.01 0.00 0.00 0.00 0.00 0.02 0.02 0.02 0.02 0.05 0.04 0.04 0.04 0.05 0.06 0.06 0.08 0.08 0.07 0.06 0.07 0.10 0.13 0.15 0.14 0.12 0.12 0.16 0.17 0.27 0.29 0.31 0.29 0.29 0.36
0.00 0.00 0.00 0.00 0.00 0.00 0.00 0.00 0.00 0.00 0.00 0.00 0.00 0.00 0.00 0.00 0.00 0.01 0.01 0.01 0.01 0.02 0.01 0.02 0.02 0.01 0.01 0.00 0.00 0.01 0.02 0.02 0.05 0.07 0.04 0.05 0.04 0.06 0.11 0.11 0.05 0.03 0.05
0.00 0.00 0.00 0.00 0.00 0.00 0.00 0.00 0.00 0.00 0.00 0.00 0.00 0.00 0.00 0.00 0.00 0.00 0.00 0.01 0.01 0.01 0.01 0.00 0.00 0.00 0.00 0.00 0.00 0.00 0.01 0.01 0.01 0.04 0.03 0.02 0.01 0.02 0.03 0.02 0.01 0.01 0.01

GFSMA_prec_precacc24_177.txt.gz
Total_Precipitation_Accumulation
0.00 0.00 0.00 0.00 0.00 0.00 0.00 0.00 0.02 0.07 0.14 0.22 0.19 0.19 0.14 0.12 0.07 0.09 0.05 0.02 0.02 0.05 0.06 0.11 0.13 0.14 0.15 0.13 0.12 0.08 0.06 0.04 0.02 0.02 0.03 0.02 0.00 0.01 0.01 0.02 0.05 0.07 0.08
0.00 0.00 0.00 0.00 0.00 0.00 0.00 0.00 0.00 0.00 0.03 0.10 0.15 0.20 0.14 0.13 0.10 0.07 0.09 0.05 0.04 0.02 0.07 0.11 0.20 0.20 0.16 0.14 0.07 0.06 0.06 0.06 0.05 0.04 0.03 0.01 0.01 0.00 0.00 0.01 0.01 0.02 0.03
0.00 0.00 0.00 0.00 0.00 0.00 0.00 0.00 0.00 0.00 0.00 0.02 0.06 0.13 0.19 0.20 0.13 0.07 0.10 0.10 0.04 0.03 0.03 0.06 0.14 0.20 0.16 0.12 0.05 0.02 0.03 0.02 0.02 0.05 0.05 0.01 0.01 0.03 0.01 0.00 0.01 0.03 0.04
0.00 0.00 0.00 0.00 0.00 0.00 0.00 0.00 0.00 0.00 0.00 0.00 0.02 0.07 0.14 0.20 0.15 0.06 0.07 0.19 0.15 0.06 0.10 0.10 0.14 0.20 0.23 0.17 0.12 0.08 0.04 0.02 0.02 0.02 0.06 0.06 0.03 0.04 0.06 0.03 0.00 0.01 0.03
0.00 0.00 0.00 0.00 0.00 0.00 0.00 0.00 0.00 0.00 0.00 0.00 0.00 0.02 0.07 0.12 0.19 0.18 0.12 0.14 0.25 0.16 0.07 0.08 0.15 0.24 0.32 0.41 0.30 0.18 0.15 0.14 0.07 0.05 0.05 0.09 0.11 0.11 0.12 0.11 0.09 0.04 0.01
0.00 0.00 0.00 0.00 0.00 0.00 0.00 0.00 0.00 0.00 0.00 0.00 0.00 0.00 0.02 0.07 0.15 0.21 0.15 0.10 0.16 0.21 0.08 0.05 0.10 0.16 0.30 0.45 0.49 0.35 0.22 0.15 0.13 0.10 0.09 0.08 0.11 0.17 0.17 0.17 0.19 0.17 0.07
0.00 0.00 0.00 0.00 0.00 0.00 0.00 0.00 0.00 0.00 0.00 0.00 0.00 0.00 0.00 0.02 0.06 0.14 0.21 0.15 0.16 0.12 0.18 0.12 0.15 0.16 0.28 0.43 0.46 0.33 0.25 0.13 0.10 0.14 0.12 0.11 0.16 0.19 0.21 0.25 0.25 0.23 0.18
0.00 0.00 0.00 0.00 0.00 0.00 0.00 0.00 0.00 0.01 0.01 0.00 0.01 0.02 0.01 0.00 0.01 0.03 0.10 0.16 0.14 0.08 0.16 0.20 0.21 0.23 0.34 0.40 0.37 0.41 0.40 0.31 0.17 0.17 0.25 0.26 0.18 0.20 0.21 0.33 0.30 0.24 0.20
0.00 0.00 0.00 0.00 0.00 0.00 0.01 0.00 0.01 0.01 0.02 0.01 0.01 0.05 0.07 0.03 0.01 0.01 0.01 0.05 0.22 0.45 0.44 0.47 0.50 0.44 0.34 0.33 0.31 0.36 0.37 0.44 0.54 0.47 0.48 0.50 0.43 0.35 0.36 0.40 0.38 0.34 0.26
0.00 0.00 0.00 0.00 0.00 0.00 0.01 0.01 0.01 0.01 0.03 0.03 0.01 0.01 0.04 0.07 0.08 0.04 0.02 0.07 0.17 0.39 0.76 1.34 1.47 1.62 1.64 1.59 1.43 1.28 1.25 1.26 1.22 1.38 1.40 1.31 1.23 1.31 1.43 1.31 0.87 0.50 0.37
0.00 0.00 0.01 0.00 0.00 0.00 0.01 0.01 0.01 0.01 0.02 0.04 0.04 0.03 0.02 0.02 0.05 0.09 0.05 0.03 0.05 0.11 0.25 0.28 0.60 0.96 1.02 0.96 0.92 1.02 1.06 1.41 1.39 1.38 1.44 1.26 1.07 1.08 1.26 1.74 1.79 1.28 0.80
0.00 0.00 0.00 0.00 0.00 0.00 0.01 0.01 0.01 0.02 0.02 0.04 0.05 0.04 0.04 0.06 0.05 0.09 0.07 0.03 0.03 0.03 0.12 0.14 0.14 0.25 0.29 0.34 0.47 0.57 0.46 0.48 0.69 0.73 0.71 0.72 0.63 0.59 0.57 0.56 0.82 1.06 0.84
0.00 0.01 0.01 0.01 0.01 0.00 0.01 0.01 0.02 0.03 0.03 0.04 0.04 0.06 0.06 0.06 0.08 0.09 0.10 0.07 0.05 0.04 0.09 0.15 0.19 0.21 0.24 0.29 0.35 0.47 0.52 0.51 0.39 0.43 0.43 0.39 0.33 0.33 0.33 0.34 0.32 0.33 0.27
0.01 0.00 0.00 0.01 0.01 0.00 0.01 0.01 0.01 0.02 0.02 0.04 0.05 0.05 0.07 0.06 0.06 0.10 0.15 0.16 0.11 0.08 0.13 0.19 0.20 0.24 0.32 0.39 0.41 0.57 0.64 0.64 0.59 0.52 0.45 0.45 0.51 0.49 0.40 0.37 0.34 0.31 0.32
0.00 0.00 0.00 0.00 0.00 0.00 0.01 0.01 0.01 0.01 0.01 0.03 0.04 0.04 0.07 0.08 0.08 0.09 0.14 0.23 0.29 0.16 0.12 0.15 0.20 0.22 0.32 0.33 0.44 0.42 0.46 0.67 0.72 0.69 0.63 0.56 0.53 0.60 0.70 0.67 0.57 0.52 0.47
0.00 0.00 0.00 0.00 0.01 0.00 0.00 0.00 0.01 0.00 0.01 0.02 0.03 0.04 0.05 0.07 0.08 0.08 0.12 0.17 0.32 0.38 0.36 0.23 0.27 0.21 0.18 0.21 0.49 0.49 0.45 0.45 0.73 0.91 0.92 1.09 1.15 0.89 0.68 0.78 0.95 0.82 0.65
0.00 0.00 0.00 0.00 0.01 0.01 0.01 0.01 0.01 0.01 0.02 0.02 0.02 0.03 0.05 0.05 0.08 0.11 0.09 0.12 0.17 0.28 0.78 0.67 0.33 0.29 0.20 0.18 0.22 0.30 0.36 0.30 0.30 0.45 0.67 0.86 1.19 1.72 1.56 1.16 1.10 1.35 1.28
0.00 0.00 0.00 0.00 0.00 0.01 0.01 0.01 0.01 0.02 0.03 0.04 0.06 0.06 0.08 0.07 0.08 0.07 0.07 0.08 0.10 0.21 0.36 0.47 0.65 0.62 0.47 0.35 0.28 0.29 0.24 0.26 0.29 0.38 0.40 0.43 0.59 0.92 1.35 1.59 1.43 1.41 1.52
0.00 0.00 0.00 0.00 0.00 0.00 0.00 0.01 0.03 0.04 0.06 0.09 0.14 0.20 0.17 0.17 0.17 0.19 0.19 0.15 0.16 0.15 0.31 0.41 0.44 0.48 0.61 0.63 0.56 0.54 0.55 0.48 0.36 0.31 0.29 0.34 0.46 0.50 0.64 1.00 1.41 1.48 1.37
0.00 0.00 0.00 0.00 0.00 0.00 0.00 0.00 0.00 0.00 0.01 0.06 0.16 0.20 0.24 0.23 0.24 0.21 0.29 0.33 0.27 0.23 0.29 0.39 0.55 0.62 0.64 0.73 0.70 0.67 0.67 0.63 0.71 0.65 0.57 0.45 0.40 0.50 0.53 0.54 0.61 0.82 1.09
0.00 0.00 0.00 0.00 0.00 0.00 0.00 0.00 0.00 0.00 0.01 0.01 0.05 0.07 0.08 0.11 0.12 0.09 0.10 0.23 0.28 0.31 0.38 0.39 0.45 0.52 0.61 0.64 0.74 0.85 0.86 0.86 0.87 0.86 0.77 0.71 0.68 0.60 0.61 0.56 0.57 0.57 0.59
0.00 0.00 0.00 0.00 0.00 0.00 0.00 0.00 0.00 0.00 0.00 0.01 0.02 0.03 0.02 0.02 0.02 0.04 0.08 0.07 0.11 0.16 0.22 0.28 0.35 0.45 0.60 0.67 0.67 0.65 0.69 0.75 0.74 0.72 0.92 0.94 0.87 0.90 1.01 1.04 0.99 0.80 0.63
0.00 0.00 0.00 0.00 0.00 0.00 0.00 0.00 0.00 0.00 0.00 0.00 0.01 0.02 0.02 0.01 0.02 0.01 0.02 0.03 0.05 0.08 0.12 0.11 0.13 0.19 0.20 0.22 0.25 0.31 0.34 0.36 0.51 0.56 0.61 0.63 0.65 0.76 0.83 0.95 1.06 1.09 1.01
0.00 0.00 0.00 0.00 0.00 0.00 0.00 0.00 0.00 0.00 0.00 0.00 0.00 0.00 0.01 0.01 0.01 0.02 0.01 0.02 0.03 0.04 0.05 0.06 0.07 0.07 0.05 0.04 0.06 0.08 0.12 0.14 0.12 0.10 0.10 0.13 0.15 0.24 0.28 0.28 0.26 0.29 0.36
0.00 0.00 0.00 0.00 0.00 0.00 0.00 0.00 0.00 0.00 0.00 0.00 0.00 0.00 0.00 0.00 0.00 0.00 0.01 0.00 0.01 0.02 0.01 0.01 0.01 0.01 0.01 0.00 0.00 0.01 0.02 0.02 0.05 0.06 0.03 0.05 0.04 0.05 0.10 0.08 0.03 0.03 0.05
0.00 0.00 0.00 0.00 0.00 0.00 0.00 0.00 0.00 0.00 0.00 0.00 0.00 0.00 0.00 0.00 0.00 0.00 0.00 0.01 0.01 0.01 0.01 0.00 0.00 0.00 0.00 0.00 0.00 0.00 0.01 0.01 0.01 0.03 0.02 0.01 0.01 0.01 0.02 0.01 0.00 0.00 0.00

GFSMA_prec_precacc24_183.txt.gz
Total_Precipitation_Accumulation
0.00 0.00 0.00 0.00 0.00 0.00 0.00 0.00 0.00 0.00 0.00 0.00 0.00 0.00 0.00 0.00 0.00 0.00 0.00 0.02 0.02 0.04 0.03 0.06 0.10 0.13 0.15 0.13 0.13 0.15 0.17 0.16 0.17 0.18 0.16 0.11 0.08 0.07 0.07 0.09 0.07 0.04 0.04
0.00 0.00 0.00 0.00 0.00 0.00 0.00 0.00 0.00 0.00 0.00 0.00 0.00 0.00 0.00 0.00 0.00 0.00 0.00 0.02 0.04 0.02 0.04 0.07 0.16 0.19 0.17 0.15 0.08 0.07 0.07 0.06 0.11 0.23 0.39 0.29 0.18 0.14 0.11 0.07 0.07 0.04 0.01
0.00 0.00 0.00 0.00 0.00 0.00 0.00 0.00 0.00 0.00 0.00 0.00 0.00 0.00 0.00 0.00 0.00 0.00 0.00 0.00 0.00 0.03 0.03 0.05 0.14 0.19 0.19 0.14 0.07 0.03 0.04 0.03 0.04 0.09 0.16 0.27 0.29 0.26 0.20 0.15 0.13 0.10 0.05
0.00 0.00 0.00 0.00 0.00 0.00 0.00 0.00 0.00 0.00 0.00 0.00 0.00 0.00 0.00 0.00 0.00 0.00 0.00 0.00 0.00 0.01 0.07 0.10 0.14 0.18 0.21 0.19 0.15 0.11 0.06 0.04 0.03 0.04 0.09 0.16 0.20 0.25 0.24 0.22 0.21 0.17 0.15
0.00 0.00 0.00 0.00 0.00 0.00 0.00 0.00 0.00 0.00 0.00 0.00 0.00 0.00 0.00 0.00 0.00 0.00 0.00 0.00 0.00 0.01 0.02 0.07 0.14 0.22 0.31 0.41 0.33 0.23 0.19 0.16 0.09 0.06 0.07 0.12 0.16 0.21 0.23 0.28 0.29 0.29 0.31
0.00 0.00 0.00 0.00 0.00 0.00 0.00 0.00 0.00 0.00 0.00 0.00 0.00 0.00 0.00 0.00 0.00 0.00 0.00 0.00 0.00 0.00 0.00 0.01 0.09 0.15 0.31 0.46 0.48 0.35 0.27 0.18 0.15 0.13 0.12 0.10 0.12 0.20 0.22 0.27 0.34 0.33 0.34
0.00 0.00 0.00 0.00 0.00 0.00 0.00 0.00 0.00 0.00 0.00 0.00 0.00 0.00 0.00 0.00 0.00 0.00 0.00 0.00 0.00 0.00 0.00 0.01 0.04 0.11 0.27 0.40 0.44 0.34 0.27 0.16 0.13 0.16 0.14 0.13 0.18 0.21 0.22 0.28 0.35 0.36 0.38
0.00 0.00 0.00 0.00 0.00 0.00 0.00 0.00 0.00 0.00 0.00 0.00 0.01 0.00 0.00 0.00 0.00 0.00 0.00 0.00 0.00 0.00 0.00 0.02 0.05 0.09 0.24 0.35 0.36 0.37 0.33 0.29 0.18 0.19 0.26 0.28 0.20 0.22 0.22 0.35 0.33 0.33 0.37
0.00 0.00 0.00 0.00 0.00 0.00 0.00 0.00 0.00 0.00 0.00 0.00 0.00 0.03 0.04 0.02 0.00 0.00 0.00 0.00 0.00 0.00 0.01 0.02 0.06 0.11 0.16 0.22 0.28 0.33 0.34 0.38 0.49 0.48 0.49 0.51 0.45 0.37 0.38 0.42 0.40 0.39 0.36
0.00 0.00 0.00 0.00 0.00 0.00 0.00 0.00 0.00 0.00 0.01 0.00 0.00 0.00 0.03 0.05 0.05 0.02 0.00 0.00 0.00 0.00 0.02 0.02 0.03 0.08 0.13 0.55 1.08 1.19 1.25 1.25 1.21 1.38 1.42 1.31 1.25 1.33 1.45 1.33 0.90 0.53 0.40
0.00 0.00 0.00 0.00 0.00 0.00 0.00 0.00 0.00 0.01 0.01 0.02 0.02 0.02 0.01 0.01 0.04 0.07 0.02 0.00 0.00 0.00 0.02 0.03 0.04 0.05 0.08 0.09 0.25 0.73 0.98 1.37 1.35 1.34 1.41 1.26 1.09 1.11 1.28 1.77 1.82 1.30 0.82
0.00 0.00 0.00 0.00 0.00 0.00 0.01 0.00 0.00 0.01 0.01 0.01 0.02 0.02 0.03 0.05 0.04 0.07 0.05 0.02 0.01 0.00 0.07 0.06 0.04 0.06 0.06 0.05 0.10 0.22 0.33 0.35 0.64 0.72 0.71 0.72 0.64 0.61 0.60 0.59 0.84 1.09 0.86
0.00 0.00 0.00 0.00 0.00 0.00 0.00 0.00 0.00 0.01 0.02 0.02 0.02 0.03 0.03 0.04 0.06 0.07 0.07 0.04 0.02 0.02 0.07 0.06 0.05 0.05 0.07 0.07 0.11 0.16 0.18 0.18 0.16 0.34 0.42 0.41 0.33 0.35 0.35 0.36 0.34 0.34 0.29
0.00 0.00 0.00 0.00 0.00 0.00 0.00 0.00 0.00 0.00 0.01 0.02 0.02 0.02 0.03 0.04 0.05 0.08 0.12 0.11 0.05 0.05 0.10 0.09 0.07 0.07 0.10 0.15 0.19 0.18 0.11 0.18 0.18 0.17 0.21 0.32 0.47 0.47 0.41 0.40 0.37 0.35 0.36
0.00 0.00 0.00 0.00 0.00 0.00 0.00 0.00 0.00 0.00 0.00 0.01 0.02 0.02 0.03 0.03 0.04 0.06 0.10 0.14 0.17 0.11 0.11 0.07 0.10 0.09 0.10 0.12 0.22 0.11 0.08 0.24 0.28 0.31 0.33 0.33 0.35 0.47 0.64 0.65 0.56 0.54 0.50
0.00 0.00 0.00 0.00 0.00 0.00 0.00 0.00 0.00 0.00 0.00 0.00 0.01 0.02 0.03 0.03 0.03 0.04 0.07 0.09 0.14 0.18 0.21 0.13 0.12 0.11 0.08 0.08 0.19 0.10 0.11 0.15 0.38 0.55 0.56 0.77 0.92 0.74 0.57 0.73 0.93 0.82 0.65
0.00 0.00 0.00 0.00 0.00 0.00 0.00 0.00 0.00 0.00 0.00 0.00 0.01 0.01 0.01 0.01 0.02 0.03 0.04 0.06 0.09 0.14 0.26 0.18 0.12 0.13 0.11 0.10 0.11 0.09 0.08 0.03 0.08 0.22 0.42 0.56 0.89 1.51 1.41 1.06 1.04 1.32 1.27
0.00 0.00 0.00 0.00 0.00 0.00 0.00 0.00 0.00 0.00 0.00 0.00 0.01 0.01 0.02 0.01 0.01 0.01 0.02 0.04 0.07 0.11 0.19 0.21 0.17 0.16 0.17 0.16 0.16 0.13 0.09 0.06 0.05 0.10 0.10 0.16 0.33 0.68 1.19 1.46 1.32 1.30 1.45
0.00 0.00 0.00 0.00 0.00 0.00 0.00 0.00 0.00 0.00 0.00 0.00 0.01 0.01 0.02 0.01 0.02 0.03 0.04 0.04 0.06 0.07 0.11 0.16 0.18 0.16 0.15 0.17 0.21 0.20 0.13 0.07 0.05 0.06 0.04 0.06 0.12 0.25 0.47 0.84 1.28 1.39 1.31
0.00 0.00 0.00 0.00 0.00 0.00 0.00 0.00 0.00 0.00 0.00 0.00 0.00 0.00 0.00 0.01 0.02 0.02 0.04 0.07 0.10 0.09 0.11 0.12 0.17 0.19 0.20 0.23 0.15 0.16 0.16 0.14 0.11 0.08 0.08 0.08 0.13 0.24 0.31 0.39 0.47 0.70 0.99
0.00 0.00 0.00 0.00 0.00 0.00 0.00 0.00 0.00 0.00 0.00 0.00 0.00 0.00 0.00 0.00 0.01 0.01 0.01 0.03 0.07 0.13 0.14 0.14 0.16 0.19 0.24 0.26 0.34 0.35 0.25 0.23 0.21 0.22 0.21 0.17 0.17 0.22 0.26 0.24 0.34 0.41 0.48
0.00 0.00 0.00 0.00 0.00 0.00 0.00 0.00 0.00 0.00 0.00 0.00 0.00 0.00 0.00 0.00 0.00 0.00 0.01 0.01 0.03 0.07 0.11 0.13 0.16 0.18 0.23 0.25 0.25 0.25 0.25 0.23 0.23 0.25 0.33 0.35 0.31 0.30 0.38 0.47 0.44 0.45 0.47
0.00 0.00 0.00 0.00 0.00 0.00 0.00 0.00 0.00 0.00 0.00 0.00 0.00 0.00 0.00 0.00 0.00 0.00 0.00 0.00 0.01 0.03 0.06 0.07 0.06 0.08 0.09 0.09 0.10 0.12 0.12 0.13 0.20 0.23 0.20 0.22 0.26 0.31 0.37 0.39 0.47 0.54 0.58
0.00 0.00 0.00 0.00 0.00 0.00 0.00 0.00 0.00 0.00 0.00 0.00 0.00 0.00 0.00 0.00 0.00 0.00 0.00 0.00 0.00 0.00 0.00 0.02 0.04 0.04 0.02 0.01 0.02 0.03 0.05 0.05 0.02 0.02 0.01 0.02 0.03 0.10 0.13 0.11 0.12 0.16 0.21
0.00 0.00 0.00 0.00 0.00 0.00 0.00 0.00 0.00 0.00 0.00 0.00 0.00 0.00 0.00 0.00 0.00 0.00 0.00 0.00 0.00 0.00 0.00 0.00 0.00 0.00 0.01 0.00 0.00 0.00 0.01 0.00 0.02 0.02 0.01 0.01 0.01 0.02 0.08 0.03 0.01 0.01 0.02
0.00 0.00 0.00 0.00 0.00 0.00 0.00 0.00 0.00 0.00 0.00 0.00 0.00 0.00 0.00 0.00 0.00 0.00 0.00 0.00 0.00 0.00 0.00 0.00 0.00 0.00 0.00 0.00 0.00 0.00 0.00 0.00 0.00 0.00 0.00 0.01 0.00 0.00 0.02 0.00 0.00 0.00 0.00